Location: Newark
(35.2672°N, 80.7344°W)
Time: 03:27:28
(UTC+00:00)

Tiros 1 - Pass Details

Date: 26 January 2020
Orbit: 631 x 664 km, 48.4° (Epoch: 18 February)

Event Time Altitude Azimuth Distance (km) Brightness Sun altitude
Rises 21:20:14 0° 308° (NW) 2,962 10.8 14.2°
Reaches altitude 10° 21:23:10 10° 327° (NNW) 2,057 9.8 13.7°
Maximum altitude 21:26:34 19° 12° (NNE) 1,548 8.8 13.2°
Drops below altitude 10° 21:29:59 10° 58° (ENE) 2,069 9.2 12.6°
Sets 21:32:57 0° 76° (ENE) 2,984 10.0 12.1°
